Flag for India Weather past 2 weeks in Bhinga, Uttar Pradesh, India

Now
84 °F

Haze.


Feels Like: 96 °F
Forecast: 78 / 97 °F
Wind: No wind

Location: Lucknow / Amausi

Current Time: Aug 23, 2014 at 2:03:02 AM

Latest Report: Aug 23, 2014 at 1:00 AM


Visibility: 2 mi

Pressure: 29.65 "Hg

Humidity: 84%

Dew point: 79 °F

Location of BhingaLocation

Historic Weather in Bhinga — Graph

°F

Bhinga temperature yesterday

Maximum temperature yesterday: 104 °F (at 1:30 PM)
Minimum temperature yesterday: 82 °F (at 2:00 AM)
Average temperature yesterday: 93 °F

Past Weeks' High & Low Weather Summary

 TemperatureHumidityPressure
High104 °F (Aug 22, 1:30 PM)100% (Aug 11, 5:30 AM)29.77 "Hg (Aug 11, 5:30 AM)
Low79 °F (Aug 11, 2:00 AM)45% (Aug 22, 1:30 PM)29.42 "Hg (Aug 8, 12:00 AM)
Average89 °F76%29.58 "Hg
* Reported Midnight between Aug 7 and Aug 8 — Midnight between Aug 22 and Aug 23, Bhinga, Weather by CustomWeather, © 2014

Note: Actual official high and low records may vary slightly from our data, if they occured in-between our weather recording intervals... More about our weather records

Advertising

Bhinga weather history for previous 24 hours

 ConditionsComfort  
Time TempWeatherWind HumidityBarometerVisibility
12:00 AM
Aug 23
86 °FHaze.No wind79%29.65 "Hg2 mi
11:00 PM
Aug 22
86 °FHaze.No wind79%29.65 "Hg2 mi
10:00 PM88 °FPassing clouds.No wind70%29.65 "Hg2 mi
9:00 PM88 °FPassing clouds.No wind70%29.62 "Hg2 mi
8:30 PM90 °FPassing clouds.No wind71%29.59 "Hg2 mi
8:00 PM90 °FPassing clouds.No wind71%29.59 "Hg2 mi
7:30 PM91 °FHaze.No wind63%29.59 "Hg2 mi
7:00 PM95 °FHaze.2 mph56%29.56 "Hg2 mi
6:30 PM97 °FHaze.2 mph53%29.56 "Hg3 mi
6:00 PM100 °FHaze.2 mph47%29.56 "Hg3 mi
5:30 PM102 °FScattered clouds.5 mph45%29.53 "Hg3 mi
5:00 PM102 °FScattered clouds.5 mph48%29.53 "Hg3 mi
4:30 PM104 °FScattered clouds.6 mph45%29.53 "Hg3 mi
3:30 PM104 °FScattered clouds.8 mph48%29.56 "Hg3 mi
3:00 PM104 °FScattered clouds.7 mph48%29.59 "Hg3 mi
2:30 PM104 °FScattered clouds.8 mph48%29.59 "Hg3 mi
2:00 PM104 °FScattered clouds.7 mph48%29.59 "Hg3 mi
1:30 PM104 °FScattered clouds.5 mph45%29.62 "Hg3 mi
1:00 PM102 °FScattered clouds.6 mph51%29.62 "Hg3 mi
12:30 PM102 °FScattered clouds.5 mph54%29.62 "Hg3 mi
11:30 AM102 °FBroken clouds.2 mph57%29.65 "Hg3 mi
11:00 AM102 °FScattered clouds.3 mph57%29.65 "Hg3 mi
10:30 AM100 °FScattered clouds.2 mph60%29.65 "Hg3 mi
10:00 AM97 °FScattered clouds.2 mph67%29.65 "Hg3 mi
9:00 AM95 °FHaze.3 mph67%29.65 "Hg3 mi
8:30 AM93 °FHaze.3 mph71%29.65 "Hg2 mi
8:00 AM90 °FHaze.No wind79%29.62 "Hg2 mi
7:30 AM86 °FScattered clouds.No wind89%29.62 "Hg2 mi
7:00 AM84 °FScattered clouds.No wind89%29.62 "Hg2 mi
6:30 AM82 °FScattered clouds.No wind94%29.62 "Hg2 mi
6:00 AM82 °FPassing clouds.No wind94%29.59 "Hg2 mi
5:30 AM82 °FPassing clouds.No wind94%29.59 "Hg2 mi
5:00 AM82 °FPassing clouds.No wind94%29.59 "Hg2 mi
4:00 AM82 °FPassing clouds.No wind94%29.56 "Hg2 mi
3:00 AM82 °FPassing clouds.No wind94%29.59 "Hg2 mi
2:00 AM82 °FPassing clouds.No wind94%29.59 "Hg2 mi
Weather by CustomWeather, © 2014

See weather overviewHow to use our weather pages